Flag Weather past 2 weeks in Zwickau, Saxony, Germany

Now
37 °F

Overcast.


Feels Like: 32 °F
Forecast: 29 / 40 °F
Wind: 7 mph from East

Location: Altenburg Nobitz

Current Time: Nov 28, 2014 at 5:18:28 PM

Latest Report: Nov 28, 2014 at 4:50 PM


Visibility: N/A

Pressure: 30.01 "Hg

Humidity: 100%

Dew point: 37 °F

Location of ZwickauLocation

Historic Weather in Zwickau — Graph

°F

Zwickau temperature yesterday

Maximum temperature yesterday: 41 °F (at 1:20 PM)
Minimum temperature yesterday: 27 °F (at 8:20 AM)
Average temperature yesterday: 36 °F

Past Weeks' High & Low Weather Summary

 TemperatureHumidityPressure
High59 °F (Nov 14, 12:20 PM)100% (Nov 14, 8:20 AM)30.36 "Hg (Nov 14, 8:20 AM)
Low27 °F (Nov 27, 8:20 AM)43% (Nov 17, 10:50 AM)29.53 "Hg (Nov 16, 10:20 AM)
Average44 °F92%30.03 "Hg
* Reported Nov 13 3:20 PM — Nov 28 3:50 PM, Zwickau, Weather by CustomWeather, © 2014

Note: Actual official high and low records may vary slightly from our data, if they occured in-between our weather recording intervals... More about our weather records

Advertising

Zwickau weather history for previous 24 hours

 ConditionsComfort  
Time TempWeatherWind HumidityBarometerVisibility
3:50 PM
Nov 28
37 °FOvercast.6 mph100%29.98 "HgN/A
3:20 PM37 °FOvercast.6 mph93%29.98 "HgN/A
2:50 PM37 °FOvercast.6 mph93%29.98 "HgN/A
2:20 PM37 °FOvercast.6 mph100%29.98 "HgN/A
1:50 PM37 °FOvercast.6 mph100%29.98 "HgN/A
1:20 PM37 °FOvercast.6 mph100%29.98 "HgN/A
12:50 PM37 °FOvercast.6 mph100%29.98 "HgN/A
12:20 PM37 °FOvercast.6 mph100%29.98 "HgN/A
11:50 AM37 °FOvercast.6 mph93%30.01 "HgN/A
11:20 AM37 °FOvercast.7 mph93%30.01 "HgN/A
10:50 AM37 °FOvercast.6 mph100%29.98 "HgN/A
10:20 AM36 °FOvercast.7 mph100%30.01 "HgN/A
9:50 AM36 °FScattered clouds.7 mph100%29.98 "HgN/A
9:20 AM36 °FScattered clouds.5 mph100%29.98 "HgN/A
5:50 PM
Nov 27
36 °FClear.5 mph100%29.89 "Hg10 mi
5:20 PM36 °FClear.6 mph100%29.89 "Hg10 mi
Weather by CustomWeather, © 2014

See weather overviewHow to use our weather pages